星链-30039 (STARLINK-30039 )

导读

STARLINK-30039是美国SpaceX星链计划中的一颗卫星,于2023年7月28日发射升空。作为星链星座的组成部分,它主要服务于全球卫星互联网项目,旨在为全球偏远、网络基础设施匮乏地区提供高速宽带网络服务,进一步推动星链星座组网进度,扩大星链系统的覆盖范围与服务能力。

基本信息
目录编号:
57468
目录名称:
STARLINK-30039
国际标识:
2023-107M
轨道中心:
EARTH
卫星名称:
星链-30039
卫星全名:
星链-30039 (STARLINK-30039 )
卫星状态:
在轨 (已飞行1056 天)
发射日期:
2023-07-28 UTC
国别 :
美国 (US)
星等 :
--
轨道信息
数据来源 国际轨道数据 AOE轨道数据
星历时间 2026-06-18T13:58:10+0800
8小时前
查看轨道信息
2026-06-16T00:00:00+0800
2天前
查看轨道信息
半长轴 6861.193km 6861.204km
偏心率 0.0001118 0.000001
轨道倾角 43.002° 43.008°
近地点辐角 264.429° 224.031°
升交点赤经 128.426° 143.019°
平近点角 95.643° 319.860°
近地点 482.288km 483.06km
远地点 483.824km 483.074km
周期 94.267分钟 94.267分钟
每日圈数 15.27578 15.275742
详细信息
固有亮度:
5
最大亮度:
0.3
卫星平台:
Starlink v2.0 mini
覆盖范围:
全球
运营商:
太空探索技术公司
运营商所在国:
美国
制造商(研发单位):
太空探索技术公司
制造商所在国:
美国
使用方式:
暂无
卫星简介
星链(Starlink)计划是由太空探索技术公司(SpaceX)提出的一个巨型低轨卫星互联网星座项目,计划在2019年至2024年间在太空搭建由约1.2万颗卫星组成的“星链”网络,其中1584颗将部署在地球上空550千米处的近地轨道,并从2020年开始工作。该卫星仍在工作。
2D轨道图
3D轨道图
轨道高度分析图
轨道倾角分析图
轨道综合分析图
查看轨道综合分析图